Location: Rancho Del Sol Observatory
(38.7214°N, 120.6350°W)
Time: 10:31:47
(UTC-08:00)

Courier 1B Rocket - Pass Details

Date: 02 February 2020
Orbit: 920 x 1202 km, 28.2° (Epoch: 16 February)

Event Time Altitude Azimuth Distance (km) Brightness Sun altitude
Rises 12:59:15 0° 262° (W) 4,010 8.4 33.6°
Reaches altitude 10° 13:02:56 10° 247° (WSW) 3,003 8.1 33.4°
Maximum altitude 13:08:01 20° 203° (SSW) 2,265 8.9 33.2°
Drops below altitude 10° 13:12:54 10° 159° (SSE) 2,852 8.3 32.9°
Sets 13:16:17 0° 143° (SE) 3,749 8.5 32.8°
